Marshfield, MA

11:15 AM EDT on July 25, 2017 (GMT -0400)
Marshfield

Weather History for KGHG - February, 2013

Change the Weather History Date:

Saturday, February 16, 2013

  Actual Average (KPYM) Record (KPYM)
Temperature  
Mean Temperature 34 °F -  
Max Temperature 37 °F 40 °F 63 °F (1984)
Min Temperature 32 °F 19 °F -4 °F (1987)
Degree Days  
Heating Degree Days 30    
Moisture  
Dew Point 33 °F    
Average Humidity 91    
Maximum Humidity 100    
Minimum Humidity 81    
Precipitation  
Precipitation 0.07 in - - ()
Sea Level Pressure  
Sea Level Pressure 29.87 in    
Wind  
Wind Speed 4 mph (NNW)    
Max Wind Speed 14 mph    
Max Gust Speed 29 mph    
Visibility 6 miles    
Events Rain , Snow    
Averages and records for this station are not official NWS values.
T = Trace of Precipitation, MM = Missing Value Source: NWS Daily Summary

Daily Weather History Graph

Daily Weather History Graph

Search for Another Location

Airport or City:

Trip Planner

Search our weather history database for the weather conditions in past years. The results will help you decide how hot, cold, wet, or windy it might be!

Date:

Astronomy

Feb. 16, 2013 Rise Set
Actual Time 6:37 AM EST 5:17 PM EST
Civil Twilight 6:08 AM EST 5:45 PM EST
Nautical Twilight 5:35 AM EST 6:18 PM EST
Astronomical Twilight 5:03 AM EST 6:50 PM EST
Moon 9:40 AM EST (2/16) No Moon Set
Length of Visible Light 11h 37m
Length of Day
10h 39m
Waxing Crescent, 39% of the Moon is Illuminated
Feb 16
Waxing Crescent
Feb 17
First Quarter
Feb 25
Full
Mar 4
Last Quarter
Mar 11
New

Hourly Weather History & Observations

Time (EST) Temp. Windchill Dew Point Humidity Pressure Visibility Wind Dir Wind Speed Gust Speed Precip Events Conditions
12:15 AM 37.4 °F - 35.6 °F 93% 29.97 in 0.2 mi Calm Calm - N/A   Drizzle
12:35 AM 35.6 °F - 35.6 °F 100% 29.96 in 0.2 mi Calm Calm - N/A   Drizzle
12:55 AM 35.6 °F - 35.6 °F 100% 29.96 in 0.5 mi Calm Calm - N/A   Drizzle
1:15 AM 35.6 °F - 35.6 °F 100% 29.96 in 0.5 mi Calm Calm - N/A   Drizzle
1:35 AM 35.6 °F - 33.8 °F 93% 29.96 in 0.2 mi Calm Calm - N/A   Light Drizzle
1:55 AM 33.8 °F - 33.8 °F 100% 29.95 in 0.2 mi Calm Calm - N/A   Light Drizzle
2:15 AM 33.8 °F - 33.8 °F 100% 29.94 in 0.2 mi Calm Calm - N/A   Light Drizzle
2:35 AM 33.8 °F - 32.0 °F 93% 29.94 in 0.2 mi Calm Calm - N/A   Light Drizzle
2:55 AM 32.0 °F 28.7 °F 32.0 °F 100% 29.93 in 0.2 mi WNW 3.5 mph - N/A   Light Drizzle
3:15 AM 33.8 °F - 32.0 °F 93% 29.92 in 0.2 mi Calm Calm - N/A   Light Drizzle
3:55 AM 33.8 °F 29.6 °F 32.0 °F 93% 29.92 in 0.2 mi West 4.6 mph - N/A   Drizzle
4:15 AM 33.8 °F - 33.8 °F 100% 29.92 in 0.2 mi Calm Calm - N/A   Light Drizzle
4:35 AM 33.8 °F - 33.8 °F 100% 29.92 in 0.2 mi Calm Calm - N/A   Light Drizzle
4:55 AM 35.6 °F 32.8 °F 33.8 °F 93% 29.92 in 3.0 mi NW 3.5 mph - N/A   Light Drizzle
5:15 AM 35.6 °F 32.8 °F 35.6 °F 100% 29.92 in 10.0 mi WNW 3.5 mph - N/A   Light Drizzle
5:35 AM 35.6 °F 31.7 °F 35.6 °F 100% 29.92 in 10.0 mi West 4.6 mph - N/A   Light Drizzle
5:55 AM 33.8 °F 27.7 °F 33.8 °F 100% 29.92 in 10.0 mi NW 6.9 mph - N/A   Overcast
6:15 AM 35.6 °F 30.7 °F 32.0 °F 87% 29.93 in 10.0 mi WNW 5.8 mph - N/A   Overcast
6:55 AM 35.6 °F 30.7 °F 32.0 °F 87% 29.93 in 10.0 mi NW 5.8 mph - N/A   Overcast
7:15 AM 35.6 °F 29.9 °F 32.0 °F 87% 29.94 in 10.0 mi NW 6.9 mph - N/A   Overcast
7:55 AM 35.6 °F 29.9 °F 32.0 °F 87% 29.95 in 10.0 mi NW 6.9 mph - N/A   Mostly Cloudy
8:15 AM 37.4 °F 30.3 °F 32.0 °F 81% 29.94 in 10.0 mi NNW 10.4 mph - N/A   Scattered Clouds
8:35 AM 37.4 °F 31.4 °F 32.0 °F 81% 29.95 in 10.0 mi NW 8.1 mph - N/A   Mostly Cloudy
8:55 AM 37.4 °F 32.1 °F 32.0 °F 81% 29.95 in 10.0 mi NNW 6.9 mph - N/A   Mostly Cloudy
9:15 AM 37.4 °F 30.8 °F 32.0 °F 81% 29.94 in 10.0 mi NNW 9.2 mph - N/A   Mostly Cloudy
9:35 AM 37.4 °F 31.4 °F 32.0 °F 81% 29.94 in 10.0 mi NW 8.1 mph - N/A   Overcast
9:55 AM 37.4 °F 32.8 °F 32.0 °F 81% 29.93 in 10.0 mi NNW 5.8 mph - N/A   Mostly Cloudy
10:15 AM 37.4 °F 31.4 °F 32.0 °F 81% 29.92 in 10.0 mi NW 8.1 mph 16.1 mph N/A   Overcast
10:35 AM 37.4 °F 32.1 °F 32.0 °F 81% 29.93 in 10.0 mi NNW 6.9 mph - N/A   Overcast
1:15 PM 35.6 °F 30.7 °F 32.0 °F 87% 29.88 in 10.0 mi NNW 5.8 mph - N/A Rain Light Rain
1:35 PM 35.6 °F 29.9 °F 33.8 °F 93% 29.87 in 10.0 mi NW 6.9 mph - N/A   Light Drizzle
1:55 PM 35.6 °F 31.7 °F 32.0 °F 87% 29.87 in 9.0 mi NW 4.6 mph - N/A   Overcast
2:15 PM 35.6 °F 30.7 °F 32.0 °F 87% 29.86 in 4.0 mi NW 5.8 mph - N/A Snow Light Snow
2:35 PM 33.8 °F 29.6 °F 32.0 °F 93% 29.86 in 3.0 mi NW 4.6 mph - N/A Snow Light Snow
2:55 PM 33.8 °F 27.7 °F 32.0 °F 93% 29.85 in 3.0 mi NW 6.9 mph - N/A Snow Light Snow
3:15 PM 33.8 °F 28.6 °F 32.0 °F 93% 29.85 in 2.5 mi NW 5.8 mph - 0.01 in Snow Light Snow
3:35 PM 33.8 °F 28.6 °F 33.8 °F 100% 29.84 in 2.5 mi NW 5.8 mph - 0.01 in Snow Light Snow
3:55 PM 33.8 °F 30.8 °F 33.8 °F 100% 29.84 in 2.5 mi NW 3.5 mph - 0.02 in Snow Light Snow
4:15 PM 33.8 °F 28.6 °F 33.8 °F 100% 29.84 in 1.5 mi NNW 5.8 mph - 0.01 in Snow Light Snow
4:35 PM 33.8 °F 29.6 °F 33.8 °F 100% 29.84 in 2.0 mi NW 4.6 mph - 0.02 in Snow Light Snow
4:55 PM 33.8 °F 29.6 °F 33.8 °F 100% 29.83 in 2.0 mi NNW 4.6 mph - 0.02 in Snow Light Snow
5:15 PM 35.6 °F 30.7 °F 33.8 °F 93% 29.83 in 9.0 mi North 5.8 mph - 0.01 in Rain Light Rain
5:35 PM 35.6 °F 28.6 °F 33.8 °F 93% 29.82 in 10.0 mi North 9.2 mph - 0.01 in   Light Drizzle
5:55 PM 35.6 °F 28.6 °F 32.0 °F 87% 29.82 in 10.0 mi North 9.2 mph - 0.01 in   Mostly Cloudy
6:15 PM 37.4 °F 30.8 °F 32.0 °F 81% 29.82 in 10.0 mi North 9.2 mph 16.1 mph N/A Rain Light Rain
6:35 PM 35.6 °F 28.6 °F 32.0 °F 87% 29.83 in 7.0 mi NNW 9.2 mph - N/A Snow Light Snow
6:55 PM 35.6 °F 28.6 °F 32.0 °F 87% 29.82 in 2.5 mi NNW 9.2 mph - N/A Snow Light Snow
7:15 PM 33.8 °F 26.4 °F 32.0 °F 93% 29.82 in 2.5 mi NNW 9.2 mph 16.1 mph N/A   Overcast
7:35 PM 33.8 °F 27.0 °F 32.0 °F 93% 29.81 in 3.0 mi North 8.1 mph - N/A Snow Light Snow
7:55 PM 33.8 °F 27.0 °F 32.0 °F 93% 29.80 in 3.0 mi North 8.1 mph - 0.01 in Snow Light Snow
8:15 PM 33.8 °F 27.7 °F 33.8 °F 100% 29.79 in 5.0 mi NNW 6.9 mph - N/A Snow Light Snow
8:55 PM 33.8 °F 25.3 °F 32.0 °F 93% 29.78 in 3.0 mi NNW 11.5 mph 20.7 mph 0.01 in Snow Light Snow
9:15 PM 35.6 °F 28.6 °F 33.8 °F 93% 29.77 in 10.0 mi North 9.2 mph 19.6 mph N/A Rain Rain
9:35 PM 33.8 °F 25.8 °F 32.0 °F 93% 29.76 in 10.0 mi NNW 10.4 mph 19.6 mph N/A   Light Drizzle
9:55 PM 35.6 °F 28.0 °F 32.0 °F 87% 29.75 in 10.0 mi NNW 10.4 mph - N/A   Overcast
10:15 PM 35.6 °F 27.1 °F 32.0 °F 87% 29.75 in 10.0 mi North 12.7 mph 20.7 mph N/A   Light Drizzle
10:35 PM 35.6 °F 27.1 °F 32.0 °F 87% 29.73 in 10.0 mi North 12.7 mph 21.9 mph N/A   Overcast
10:55 PM 35.6 °F 26.6 °F 32.0 °F 87% 29.72 in 10.0 mi NNW 13.8 mph 21.9 mph N/A   Overcast
11:15 PM 35.6 °F 27.5 °F 30.2 °F 81% 29.71 in 10.0 mi North 11.5 mph 23.0 mph N/A   Overcast
11:35 PM 33.8 °F 25.8 °F 30.2 °F 87% 29.69 in 5.0 mi North 10.4 mph 28.8 mph N/A   Mostly Cloudy
11:55 PM 33.8 °F 24.3 °F 28.4 °F 81% 29.68 in 8.0 mi North 13.8 mph 26.5 mph N/A   Overcast